Temperature
18 18 18 18 18 18 18 18 18 17 17 17 18 18 18 18 18 18 18 18 18 18 18 17 17 17 17 17 17 17 17 17 17 17 17 17 17 17 17 16 16 16 16
18 18 18 18 18 18 18 18 17 17 18 18 18 18 18 18 18 17 17 18 18 18 18 17 17 17 17 17 17 17 17 17 17 17 17 17 17 17 17 17 17 16 16
18 18 18 18 18 18 18 18 17 17 18 18 18 18 18 18 18 17 17 17 17 17 18 17 17 17 17 17 17 17 17 17 17 17 17 17 17 17 17 16 16 16 16
18 18 18 18 18 18 18 18 18 18 18 18 18 18 18 18 17 17 17 17 17 17 17 17 17 17 17 17 17 17 17 17 17 17 17 17 17 17 17 17 16 16 16
18 18 18 18 18 18 18 18 18 18 18 18 18 18 18 18 17 17 17 17 17 17 17 17 17 17 17 17 17 17 17 17 17 17 17 17 17 17 17 16 16 16 16
18 18 18 18 18 18 18 18 18 17 17 17 18 18 18 18 18 18 17 17 17 17 17 17 17 17 17 17 17 17 17 17 17 17 17 17 17 17 17 16 16 16 16
18 18 18 18 18 18 18 18 18 17 18 17 18 18 18 18 18 18 18 17 17 17 17 17 17 16 16 17 17 17 17 17 17 17 17 17 17 17 17 17 16 16 16
18 18 18 18 18 18 17 18 17 17 17 17 18 19 19 19 18 18 18 17 17 17 17 17 17 17 16 16 16 17 17 17 17 17 17 17 17 17 17 16 16 16 16
18 18 18 18 18 18 17 17 17 17 17 17 17 18 19 19 19 18 18 18 17 17 17 17 17 17 16 16 16 17 17 17 17 17 17 17 17 17 16 16 16 16 16
17 18 18 18 17 17 17 17 17 17 17 17 17 17 17 18 18 18 18 18 17 17 17 17 17 17 16 16 16 17 17 17 17 17 17 17 17 17 17 16 16 16 16
17 17 17 17 17 17 17 17 17 17 17 17 17 17 17 17 17 18 18 18 18 17 17 17 17 17 16 16 16 17 17 17 17 17 17 17 17 17 17 16 16 16 16
17 17 17 17 17 17 17 17 17 17 17 17 17 17 17 17 17 17 17 17 18 18 17 17 17 16 16 16 16 17 17 17 17 17 17 17 17 17 16 16 16 16 16
17 17 17 17 17 17 16 16 16 16 16 16 16 16 16 17 17 17 17 17 17 18 17 17 17 16 16 16 16 17 17 17 17 17 17 17 16 16 16 16 16 16 16
17 17 16 17 17 16 16 16 16 16 16 16 16 16 16 16 16 16 17 17 17 18 18 17 17 17 16 16 16 16 16 17 17 17 17 16 16 16 16 16 16 16 16
17 16 16 16 16 16 16 16 16 16 16 16 16 16 16 16 16 16 16 16 16 17 18 17 17 17 16 16 16 16 16 16 16 16 16 16 16 16 16 16 16 16 16
17 16 16 16 16 16 16 16 15 15 15 15 15 15 15 15 15 15 16 16 16 16 17 17 16 16 16 16 16 15 16 16 16 16 16 16 16 16 16 16 16 16 15
16 16 16 16 16 16 15 15 15 15 15 15 15 15 15 15 15 15 15 15 16 16 16 16 16 16 15 15 15 15 15 15 16 16 16 16 16 16 16 15 15 15 15
16 16 16 16 16 15 15 15 15 15 15 15 15 14 14 15 14 15 15 15 15 15 15 15 15 15 15 15 15 15 15 15 15 16 16 16 16 16 16 15 15 15 15
16 16 16 15 15 15 15 15 15 15 15 15 14 14 14 14 14 14 14 15 15 15 15 15 15 15 15 15 15 15 15 15 15 16 16 15 15 15 15 15 15 15 15
16 16 15 15 15 15 15 15 15 15 15 14 14 14 14 14 14 14 14 14 14 14 14 15 15 15 15 15 15 15 15 15 15 15 15 15 15 15 15 15 15 15 15
16 15 15 15 15 15 15 15 14 14 14 14 14 14 14 14 14 14 14 14 14 14 14 15 15 15 15 15 15 15 15 15 15 15 15 15 15 15 15 15 15 15 15
15 15 15 15 14 15 15 15 14 14 14 14 14 14 14 14 14 14 14 14 14 13 14 14 14 14 14 14 14 14 14 14 15 15 15 15 15 15 15 15 15 15 15
15 15 14 14 14 14 14 14 14 14 14 13 13 13 13 14 13 13 13 14 14 14 13 13 14 14 14 14 13 14 14 14 14 14 14 14 15 15 15 15 15 14 14
15 14 14 14 14 14 14 14 14 14 13 13 13 13 13 13 13 13 13 13 13 13 13 13 13 13 13 13 13 13 13 13 14 14 14 14 14 14 14 14 14 14 14
14 14 14 14 14 14 14 14 14 13 13 13 13 13 12 12 13 13 13 12 13 13 13 13 13 13 13 13 13 13 13 13 14 14 14 14 14 14 14 14 14 14 14
14 14 14 14 14 13 13 13 13 13 13 13 13 13 13 12 12 12 12 12 12 13 13 13 13 13 13 13 13 13 13 13 13 14 14 13 13 13 14 14 14 13 13
Wind_Speed
1 1 1 1 1 0 0 0 1 1 1 1 1 2 2 2 3 3 4 10 10 11 12 12 13 13 13 12 12 12 12 12 11 12 12 12 13 14 14 14 14 13 13
1 1 1 1 1 1 1 1 1 0 1 1 1 1 2 2 2 2 3 7 10 10 11 12 12 12 12 12 12 12 12 12 12 12 12 12 13 14 15 15 14 14 13
2 2 1 1 1 1 1 0 0 0 0 0 0 1 0 0 1 1 2 4 6 10 11 11 11 12 12 12 12 11 11 11 11 12 12 13 13 14 15 15 14 13 13
3 2 2 2 2 2 1 0 0 0 0 1 1 1 1 1 1 1 2 3 3 5 9 11 10 10 11 11 12 11 11 11 11 12 12 13 12 13 14 15 14 14 14
3 2 2 2 2 1 1 1 1 1 1 1 0 0 0 1 1 1 2 2 3 3 4 9 11 10 10 10 11 11 11 11 11 11 12 13 13 13 14 15 14 14 14
3 3 1 2 3 1 1 2 2 2 2 2 1 1 0 1 1 1 2 2 3 4 5 5 7 9 11 10 11 11 12 12 12 12 12 12 13 13 14 15 15 15 14
3 2 3 2 2 2 2 2 1 1 1 1 2 1 1 2 1 2 2 2 3 4 4 4 5 5 7 11 11 11 12 12 12 12 13 13 13 13 14 15 15 15 15
3 2 3 3 2 1 1 2 1 2 1 1 2 2 1 2 2 1 2 2 3 3 4 5 5 5 6 6 8 11 11 11 12 12 12 13 13 13 14 14 15 15 15
2 3 2 3 3 2 2 2 2 2 2 1 1 2 2 2 1 1 2 1 2 2 3 3 5 5 5 5 5 9 11 11 11 11 11 13 13 13 13 14 14 14 14
2 2 2 2 3 2 2 2 2 2 3 2 1 2 3 3 3 1 1 1 2 3 3 3 3 4 5 5 5 4 8 10 11 11 11 12 13 14 14 14 14 14 14
2 3 2 2 2 2 2 3 2 3 3 3 3 2 2 2 3 3 3 2 2 3 3 4 4 4 4 5 5 5 8 8 9 10 11 12 13 14 15 15 15 15 14
2 3 2 2 2 2 2 2 2 2 3 3 4 3 2 2 3 3 4 4 3 3 3 3 4 4 5 5 5 4 7 8 8 8 9 10 12 13 14 15 15 15 15
1 2 3 3 3 2 2 2 2 3 2 3 3 3 3 3 3 3 4 4 4 3 3 4 4 4 5 5 4 6 8 8 8 8 8 9 11 12 12 13 13 14 15
2 2 2 2 3 3 3 2 2 2 2 2 3 4 4 3 3 3 4 4 4 4 4 4 3 4 4 5 4 8 7 9 9 9 9 9 10 11 12 12 12 13 14
2 2 2 2 2 3 3 3 2 2 2 3 3 3 4 3 4 3 4 4 4 5 5 3 3 3 3 4 3 6 7 8 10 10 10 10 10 12 12 12 12 13 13
2 2 2 2 2 2 3 3 3 2 3 3 3 4 4 4 4 4 4 4 4 5 6 4 3 3 3 4 3 6 7 8 12 11 11 11 11 12 13 12 13 13 13
2 2 2 2 3 3 3 3 4 3 4 3 4 4 5 5 5 5 4 4 5 5 6 6 4 3 3 5 3 5 8 8 8 13 12 12 13 13 13 13 13 13 13
2 2 2 3 3 3 3 4 5 4 4 4 4 4 5 4 5 6 5 5 5 5 6 7 6 5 4 4 4 6 6 6 6 9 13 13 13 14 14 14 15 15 15
2 2 2 3 3 3 4 4 5 5 5 5 5 5 5 5 6 5 6 6 6 6 6 7 7 4 5 4 5 6 6 5 7 7 12 14 14 14 15 16 16 16 15
2 2 2 3 3 4 4 5 5 5 5 6 5 6 6 5 6 6 6 6 6 7 6 7 7 6 5 5 5 5 5 5 7 7 6 8 12 16 17 18 17 16 16
2 2 3 3 4 4 4 5 6 6 6 6 6 6 6 4 5 6 7 6 6 6 7 7 7 7 6 5 5 6 6 6 6 6 6 7 7 9 11 15 17 16 15
3 3 3 3 4 3 4 5 7 6 6 6 6 6 6 5 6 7 8 9 8 8 8 7 7 7 7 7 6 6 7 6 6 4 6 7 6 7 7 9 11 14 15
3 3 3 4 4 3 3 4 6 7 6 6 6 6 6 6 6 7 8 10 10 11 10 9 10 9 8 7 7 8 7 7 8 6 6 8 6 7 7 6 9 12 14
3 4 4 4 4 3 3 5 7 7 6 6 5 5 6 7 7 8 9 8 8 8 8 9 9 9 8 7 7 8 8 8 9 7 6 7 6 6 6 5 9 12 12
4 4 4 4 5 4 3 4 7 6 6 6 6 5 6 7 6 7 8 8 9 8 8 9 9 9 7 7 7 7 7 7 8 6 4 5 6 5 5 6 6 12 13
5 5 4 4 5 5 2 3 6 6 6 6 6 6 3 5 6 5 7 8 9 9 9 7 7 9 9 8 8 8 8 7 7 7 4 4 5 4 5 4 4 5 8
Wind_Direction
12 31 9 338 331 332 238 173 20 45 340 282 244 236 247 236 240 222 168 174 195 204 201 199 198 196 195 195 197 199 202 202 203 202 201 202 203 204 202 200 201 201 199
9 341 336 339 342 354 355 318 346 311 295 323 284 262 263 242 225 214 188 182 192 195 196 200 200 198 197 199 202 205 205 204 206 205 204 204 205 205 204 203 203 202 199
12 346 355 329 4 356 339 314 323 253 246 266 305 305 291 220 170 183 195 201 187 187 194 199 201 199 200 203 205 205 204 203 206 208 207 207 207 207 206 203 203 201 199
6 346 349 6 353 331 342 355 283 325 351 324 344 334 51 103 156 181 192 195 201 194 190 192 198 199 204 205 206 207 207 205 207 210 210 207 207 207 204 202 202 201 201
8 346 354 6 330 347 343 335 31 326 329 321 211 170 214 168 183 184 190 191 188 198 196 178 190 197 203 206 209 210 209 208 208 212 212 210 209 209 205 202 202 202 201
8 341 344 358 331 357 4 5 352 347 323 308 299 63 197 196 211 185 217 192 191 201 201 192 189 197 205 212 214 214 214 212 210 213 210 209 210 208 204 204 205 203 199
10 351 350 359 336 6 353 346 329 345 344 328 283 235 186 190 207 205 222 215 200 199 200 199 202 207 203 207 216 220 218 218 216 216 213 210 209 207 205 206 205 202 201
358 358 359 345 355 340 356 351 324 326 339 337 307 297 269 176 205 196 208 208 218 205 207 204 206 211 224 205 200 212 221 222 222 221 218 211 208 208 207 206 204 203 204
13 1 359 346 345 331 353 331 319 310 314 315 327 314 313 341 346 171 218 233 243 233 225 211 211 210 217 222 211 203 216 219 221 222 222 214 210 208 209 208 205 205 207
0 2 354 343 330 338 350 315 349 310 302 304 306 297 308 321 304 297 234 229 235 239 244 244 226 206 212 217 211 203 204 213 219 224 226 221 212 208 209 210 207 207 209
359 358 359 347 337 334 342 333 336 315 302 301 301 296 295 277 273 279 294 296 259 239 235 240 247 236 218 220 217 203 195 207 216 223 228 225 216 212 212 212 211 212 213
15 12 2 350 336 340 334 321 315 308 317 317 306 303 294 294 293 284 281 278 281 267 250 242 242 238 231 225 217 185 191 201 211 218 224 224 218 214 214 214 214 215 217
8 9 359 348 336 330 318 313 306 316 314 306 294 297 298 298 300 287 284 289 289 277 265 251 247 245 237 230 212 193 200 201 210 215 220 222 218 213 214 213 213 216 218
349 358 345 343 339 326 323 320 311 310 307 293 298 300 289 295 295 290 288 291 291 282 258 261 259 248 248 241 208 204 213 200 210 215 218 220 216 210 211 211 213 215 217
311 336 329 332 339 342 330 310 321 319 311 293 291 285 286 293 288 289 283 279 283 287 284 265 261 258 255 254 208 225 233 201 210 215 218 219 215 209 208 210 212 214 215
314 307 309 315 323 326 324 315 308 316 298 297 298 302 294 291 290 283 280 276 271 278 286 289 276 280 298 278 214 243 243 205 210 212 216 218 217 212 209 210 213 214 214
288 290 295 302 306 309 310 305 305 307 294 292 291 288 286 293 292 288 282 278 274 273 278 285 284 280 272 283 280 261 248 238 223 208 214 217 220 218 212 213 215 215 216
264 275 288 292 293 300 301 297 297 297 292 293 292 292 290 286 283 285 288 283 280 275 273 283 284 277 264 265 272 270 261 246 247 200 204 215 219 217 214 215 218 217 217
262 278 287 293 297 300 298 296 294 289 286 285 286 286 288 289 284 285 282 282 279 273 267 271 273 277 271 266 267 264 267 262 256 222 205 212 216 217 217 218 220 219 218
261 279 285 288 289 290 296 296 295 293 290 286 285 284 284 286 287 286 276 275 278 278 270 266 269 269 265 263 265 269 269 256 255 251 231 225 217 216 219 218 218 218 218
259 272 283 289 290 285 304 307 297 289 287 286 284 282 279 279 295 288 289 290 283 276 273 270 270 270 268 270 268 269 272 272 258 252 249 241 227 231 224 218 215 214 216
269 273 280 286 292 308 343 325 300 291 286 285 287 286 281 268 268 260 267 276 281 277 280 280 277 278 280 276 279 278 277 280 279 263 258 255 241 240 236 230 204 203 211
262 267 275 279 285 306 335 313 297 287 286 288 288 289 293 296 293 287 268 251 253 249 256 269 278 280 280 283 284 277 279 281 281 283 265 258 248 247 248 230 182 195 204
266 268 274 281 282 298 320 302 296 276 285 288 286 288 291 297 300 298 288 284 276 263 250 252 268 275 279 285 279 277 275 271 269 268 263 265 258 256 257 243 187 190 201
269 267 266 270 277 288 308 296 295 282 283 284 283 282 286 292 307 304 288 287 286 280 255 243 255 266 283 278 273 278 276 271 273 270 260 269 274 269 265 253 209 192 199
273 275 279 277 277 286 305 289 290 285 289 288 283 278 272 282 300 297 285 288 290 292 292 274 253 253 256 249 235 250 265 269 275 278 268 263 270 271 270 262 245 217 211
Height
1527 1527 1525 1525 1525 1524 1524 1523 1522 1521 1520 1520 1519 1519 1519 1518 1517 1517 1517 1517 1518 1518 1520 1523 1525 1527 1529 1531 1532 1534 1535 1537 1538 1539 1540 1541 1542 1544 1545 1547 1549 1550 1552
1526 1526 1525 1525 1525 1524 1523 1522 1521 1520 1520 1520 1519 1518 1517 1517 1516 1515 1516 1516 1517 1517 1518 1521 1524 1525 1527 1529 1531 1532 1533 1534 1535 1536 1537 1538 1539 1541 1542 1544 1546 1548 1550
1527 1526 1526 1525 1524 1524 1522 1522 1521 1521 1520 1520 1519 1518 1517 1516 1516 1516 1516 1517 1517 1517 1518 1520 1522 1524 1526 1527 1529 1530 1531 1532 1533 1534 1534 1535 1536 1538 1539 1541 1543 1545 1547
1527 1526 1526 1525 1524 1524 1523 1522 1521 1521 1520 1519 1518 1518 1517 1516 1516 1516 1516 1516 1517 1518 1519 1520 1521 1523 1524 1526 1527 1528 1529 1530 1530 1531 1532 1532 1533 1534 1536 1538 1540 1542 1544
1527 1526 1526 1525 1524 1524 1523 1522 1521 1521 1520 1519 1518 1517 1517 1516 1516 1516 1516 1516 1517 1517 1518 1519 1520 1521 1523 1524 1525 1526 1526 1527 1528 1528 1529 1530 1530 1530 1532 1534 1537 1539 1542
1527 1526 1526 1524 1524 1523 1522 1521 1520 1520 1520 1519 1519 1518 1517 1517 1516 1516 1516 1516 1516 1517 1518 1519 1519 1519 1520 1522 1523 1523 1524 1524 1525 1526 1526 1527 1527 1527 1529 1531 1534 1537 1539
1527 1526 1526 1524 1524 1523 1522 1521 1520 1520 1519 1519 1519 1518 1517 1517 1516 1516 1516 1516 1516 1516 1517 1517 1517 1518 1518 1518 1520 1521 1521 1522 1523 1523 1524 1525 1525 1526 1527 1529 1531 1534 1536
1526 1526 1525 1524 1523 1522 1521 1520 1520 1520 1519 1519 1519 1518 1517 1517 1516 1516 1515 1515 1515 1515 1516 1516 1515 1515 1516 1517 1517 1517 1518 1519 1520 1521 1522 1523 1524 1524 1525 1527 1529 1531 1533
1526 1526 1525 1524 1523 1523 1522 1520 1519 1519 1519 1519 1518 1518 1517 1516 1516 1516 1515 1515 1514 1514 1514 1514 1514 1514 1514 1515 1515 1515 1515 1516 1517 1518 1519 1520 1521 1522 1523 1524 1526 1528 1530
1526 1525 1524 1523 1522 1523 1521 1521 1520 1519 1519 1519 1518 1517 1517 1517 1516 1515 1515 1514 1513 1513 1513 1513 1513 1512 1512 1512 1512 1512 1512 1513 1514 1515 1516 1517 1518 1520 1521 1522 1523 1525 1527
1526 1525 1524 1523 1522 1522 1521 1520 1519 1518 1518 1518 1518 1517 1516 1516 1515 1515 1514 1513 1512 1512 1511 1511 1511 1511 1510 1510 1510 1509 1510 1510 1511 1512 1512 1513 1515 1516 1517 1519 1521 1522 1524
1526 1525 1524 1523 1522 1521 1520 1519 1518 1518 1517 1516 1516 1516 1516 1515 1515 1514 1513 1512 1511 1510 1510 1509 1509 1508 1508 1508 1508 1507 1507 1507 1508 1508 1509 1509 1511 1512 1514 1515 1517 1519 1520
1526 1524 1524 1522 1521 1520 1519 1518 1517 1517 1516 1515 1515 1514 1514 1514 1513 1513 1512 1511 1510 1509 1508 1507 1506 1506 1506 1506 1505 1504 1504 1504 1505 1505 1505 1506 1507 1508 1510 1512 1513 1515 1516
1525 1523 1522 1521 1520 1519 1519 1517 1517 1516 1514 1514 1514 1512 1512 1512 1511 1511 1510 1509 1508 1506 1505 1505 1504 1504 1504 1503 1502 1501 1501 1501 1501 1502 1502 1503 1504 1505 1506 1508 1509 1510 1512
1524 1522 1522 1521 1520 1518 1517 1516 1516 1514 1513 1513 1512 1511 1511 1510 1509 1509 1508 1507 1507 1505 1503 1502 1502 1502 1501 1500 1499 1498 1498 1498 1498 1498 1498 1499 1500 1501 1502 1504 1505 1506 1508
1522 1521 1520 1519 1518 1517 1516 1515 1515 1513 1512 1511 1510 1509 1508 1509 1508 1507 1506 1505 1504 1504 1501 1501 1500 1499 1498 1498 1496 1495 1495 1494 1494 1494 1494 1495 1495 1497 1498 1499 1501 1502 1504
1520 1519 1519 1518 1517 1516 1515 1514 1513 1511 1510 1510 1509 1508 1507 1506 1505 1505 1504 1503 1502 1501 1499 1498 1498 1496 1494 1494 1493 1492 1492 1491 1491 1490 1490 1491 1491 1492 1493 1495 1496 1498 1499
1518 1517 1517 1516 1515 1514 1513 1512 1511 1510 1509 1508 1507 1506 1505 1504 1502 1502 1501 1501 1500 1499 1498 1496 1495 1493 1492 1490 1489 1488 1489 1488 1488 1487 1487 1487 1487 1488 1489 1491 1492 1493 1495
1516 1516 1515 1514 1513 1512 1511 1510 1509 1508 1507 1506 1504 1503 1502 1501 1500 1500 1498 1498 1497 1496 1495 1494 1492 1491 1489 1488 1486 1486 1485 1484 1484 1484 1483 1483 1483 1484 1485 1486 1487 1489 1490
1514 1514 1513 1512 1510 1510 1509 1507 1506 1505 1504 1503 1502 1500 1500 1499 1497 1496 1495 1494 1493 1492 1491 1490 1489 1488 1487 1485 1484 1483 1482 1481 1480 1481 1480 1480 1479 1479 1480 1481 1482 1484 1485
1513 1511 1511 1509 1508 1508 1506 1505 1503 1503 1501 1500 1499 1497 1496 1495 1494 1493 1492 1491 1490 1489 1488 1487 1486 1485 1484 1483 1482 1481 1480 1478 1477 1477 1476 1476 1476 1475 1475 1476 1477 1478 1479
1510 1509 1508 1507 1506 1505 1503 1502 1501 1500 1498 1497 1496 1495 1494 1492 1490 1489 1488 1487 1486 1485 1484 1483 1482 1481 1480 1480 1478 1477 1477 1475 1474 1473 1472 1472 1472 1472 1472 1472 1472 1473 1474
1508 1507 1506 1505 1503 1502 1500 1499 1498 1497 1496 1494 1493 1491 1491 1489 1487 1486 1484 1483 1482 1480 1480 1479 1478 1477 1476 1476 1474 1473 1472 1472 1471 1470 1468 1467 1467 1467 1468 1468 1467 1468 1469
1505 1504 1503 1502 1501 1499 1498 1496 1495 1494 1492 1491 1489 1488 1486 1485 1483 1481 1480 1479 1477 1476 1475 1474 1473 1473 1472 1471 1470 1470 1468 1467 1466 1466 1465 1464 1463 1463 1464 1463 1463 1463 1464
1503 1502 1500 1499 1498 1497 1495 1494 1492 1491 1489 1488 1486 1484 1483 1481 1479 1478 1476 1474 1473 1472 1471 1470 1469 1468 1467 1466 1466 1465 1465 1464 1463 1462 1461 1460 1459 1459 1459 1459 1459 1459 1459
1500 1499 1498 1496 1495 1494 1492 1490 1489 1488 1486 1485 1483 1481 1479 1477 1476 1474 1472 1471 1469 1468 1467 1466 1464 1463 1463 1462 1461 1461 1461 1460 1459 1458 1457 1456 1456 1455 1455 1455 1455 1455 1455